Ord, NE

10:50 AM CDT on June 26, 2017 (GMT -0500)
Sharp

Weather History for KODX - January, 2014

Change the Weather History Date:

Thursday, January 2, 2014

  Actual Average Record
Temperature  
Mean Temperature 15 °F 24 °F  
Max Temperature 17 °F 36 °F 66 °F (1997)
Min Temperature 13 °F 12 °F -11 °F (2011)
Degree Days  
Heating Degree Days 50 41  
Month to date heating degree days 105 82  
Since 1 July heating degree days 2758 2806  
Cooling Degree Days 0 0  
Month to date cooling degree days 0 0  
Year to date cooling degree days 0 0  
Moisture  
Dew Point 10 °F    
Average Humidity 85    
Maximum Humidity 96    
Minimum Humidity 73    
Precipitation  
Precipitation T in 0.01 in 0.38 in (1949)
Month to date precipitation 0.06 0.02  
Year to date precipitation 0.06 0.02  
Sea Level Pressure  
Sea Level Pressure 30.38 in    
Wind  
Wind Speed 7 mph (SE)    
Max Wind Speed 18 mph    
Max Gust Speed 21 mph    
Visibility 9 miles    
Events Snow    
T = Trace of Precipitation, MM = Missing Value Source: NWS Daily Summary

Daily Weather History Graph

Daily Weather History Graph

Search for Another Location

Airport or City:

Trip Planner

Search our weather history database for the weather conditions in past years. The results will help you decide how hot, cold, wet, or windy it might be!

Date:

Astronomy

Jan. 02, 2014 Rise Set
Actual Time 8:02 AM CST 5:17 PM CST
Civil Twilight 7:31 AM CST 5:48 PM CST
Nautical Twilight 6:56 AM CST 6:23 PM CST
Astronomical Twilight 6:22 AM CST 6:57 PM CST
Moon 8:43 AM CST (1/2) 7:17 PM CST (1/2)
Length of Visible Light 10h 17m
Length of Day
9h 14m
Waxing Crescent, 3% of the Moon is Illuminated
Jan 2
Waxing Crescent
Jan 7
First Quarter
Jan 15
Full
Jan 23
Last Quarter
Jan 30
New

Hourly Weather History & Observations

Time (CST) Temp. Windchill Dew Point Humidity Pressure Visibility Wind Dir Wind Speed Gust Speed Precip Events Conditions
12:53 AM 14.0 °F - 10.0 °F 84% 30.44 in 10.0 mi Calm Calm - N/A   Overcast
1:53 AM 15.1 °F - 10.0 °F 80% 30.41 in 10.0 mi Calm Calm - N/A   Overcast
2:53 AM 15.1 °F 9.4 °F 10.9 °F 84% 30.42 in 10.0 mi NE 3.5 mph - N/A   Overcast
3:29 AM 15.1 °F 9.4 °F 10.9 °F 84% 30.27 in 10.0 mi South 3.5 mph - N/A   Overcast
3:53 AM 15.1 °F 9.4 °F 10.9 °F 84% 30.39 in 10.0 mi SSW 3.5 mph - N/A   Overcast
4:21 AM 15.1 °F - 10.9 °F 84% 30.27 in 10.0 mi Calm Calm - N/A   Overcast
4:53 AM 16.0 °F - 10.9 °F 81% 30.39 in 10.0 mi Calm Calm - N/A   Overcast
5:53 AM 15.1 °F 6.4 °F 10.9 °F 84% 30.39 in 10.0 mi East 5.8 mph - N/A   Overcast
6:53 AM 14.0 °F 5.1 °F 10.9 °F 88% 30.40 in 10.0 mi ESE 5.8 mph - 0.00 in   Overcast
7:53 AM 15.1 °F 7.7 °F 10.9 °F 84% 30.42 in 6.0 mi ESE 4.6 mph - 0.00 in Snow Light Snow
8:53 AM 15.1 °F 4.2 °F 10.0 °F 80% 30.45 in 8.0 mi ENE 8.1 mph - 0.00 in   Overcast
9:53 AM 15.1 °F 5.2 °F 9.0 °F 77% 30.45 in 7.0 mi ESE 6.9 mph - 0.00 in   Overcast
10:53 AM 15.1 °F 7.7 °F 9.0 °F 77% 30.47 in 9.0 mi East 4.6 mph - N/A   Overcast
11:53 AM 15.1 °F 7.7 °F 9.0 °F 77% 30.47 in 10.0 mi ENE 4.6 mph - 0.00 in   Overcast
12:53 PM 16.0 °F 8.8 °F 9.0 °F 74% 30.44 in 10.0 mi East 4.6 mph - N/A   Overcast
1:53 PM 16.0 °F 7.4 °F 9.0 °F 74% 30.41 in 10.0 mi SE 5.8 mph - N/A   Overcast
2:53 PM 17.1 °F 8.7 °F 10.0 °F 74% 30.41 in 10.0 mi SE 5.8 mph - N/A   Overcast
3:53 PM 17.1 °F 7.6 °F 10.0 °F 74% 30.43 in 10.0 mi SSE 6.9 mph - N/A   Overcast
4:53 PM 16.0 °F 7.4 °F 10.0 °F 77% 30.42 in 10.0 mi SE 5.8 mph - N/A   Overcast
5:53 PM 17.1 °F 5.8 °F 10.9 °F 77% 30.42 in 10.0 mi SSE 9.2 mph - N/A   Overcast
6:28 PM 16.0 °F 4.4 °F 10.9 °F 81% 30.28 in 10.0 mi SSE 9.2 mph - N/A   Overcast
6:53 PM 16.0 °F 5.3 °F 10.9 °F 81% 30.40 in 9.0 mi SSE 8.1 mph - N/A   Overcast
7:22 PM 16.0 °F 5.3 °F 10.9 °F 81% 30.26 in 10.0 mi SE 8.1 mph - N/A   Overcast
7:45 PM 15.1 °F 2.5 °F 10.0 °F 80% 30.26 in 10.0 mi SSE 10.4 mph - N/A   Overcast
7:53 PM 15.1 °F 1.8 °F 10.0 °F 80% 30.37 in 10.0 mi SE 11.5 mph - N/A   Overcast
8:53 PM 14.0 °F 2.0 °F 10.0 °F 84% 30.36 in 7.0 mi SSE 9.2 mph - N/A   Overcast
9:53 PM 12.9 °F -1.6 °F 10.9 °F 92% 30.35 in 4.0 mi SSE 12.7 mph - N/A   Overcast
10:53 PM 14.0 °F -1.4 °F 12.0 °F 92% 30.32 in 4.0 mi SSE 15.0 mph - N/A   Overcast
11:25 PM 14.0 °F -0.2 °F 10.9 °F 88% 30.20 in 6.0 mi South 12.7 mph - N/A   Overcast
11:53 PM 14.0 °F -0.8 °F 12.0 °F 92% 30.31 in 5.0 mi South 13.8 mph - N/A   Overcast